TimeEDT,TemperatureF,Dew PointF,Humidity,Sea Level PressureIn,VisibilityMPH,Wind Direction,Wind SpeedMPH,Gust SpeedMPH,PrecipitationIn,Events,Conditions,WindDirDegrees,DateUTC
12:56 AM,77.0,70.0,79,30.22,10.0,Calm,Calm,-,N/A,,Clear,0,2013-09-11 04:56:00
1:56 AM,77.0,71.1,82,30.20,10.0,Calm,Calm,-,N/A,,Clear,0,2013-09-11 05:56:00
2:56 AM,77.0,70.0,79,30.20,10.0,Calm,Calm,-,N/A,,Clear,0,2013-09-11 06:56:00
3:56 AM,75.9,70.0,82,30.20,10.0,Calm,Calm,-,N/A,,Clear,0,2013-09-11 07:56:00
4:56 AM,77.0,72.0,84,30.19,10.0,Calm,Calm,-,N/A,,Clear,0,2013-09-11 08:56:00
5:56 AM,73.9,72.0,93,30.20,8.0,Calm,Calm,-,0.00,Rain,Light Rain,0,2013-09-11 09:56:00
6:56 AM,75.0,71.1,87,30.21,10.0,Calm,Calm,-,0.00,,Clear,0,2013-09-11 10:56:00
7:56 AM,79.0,71.1,77,30.22,10.0,Calm,Calm,-,N/A,,Clear,0,2013-09-11 11:56:00
8:56 AM,82.0,69.1,65,30.23,10.0,ENE,6.9,-,N/A,,Clear,60,2013-09-11 12:56:00
9:56 AM,82.9,69.1,63,30.23,10.0,ENE,8.1,-,N/A,,Clear,70,2013-09-11 13:56:00
10:56 AM,82.0,68.0,62,30.22,10.0,ENE,5.8,-,N/A,,Clear,60,2013-09-11 14:56:00
11:56 AM,82.9,71.1,67,30.21,10.0,ENE,6.9,-,N/A,,Clear,70,2013-09-11 15:56:00
12:56 PM,82.9,70.0,65,30.21,10.0,Variable,5.8,-,N/A,,Clear,0,2013-09-11 16:56:00
1:56 PM,84.0,71.1,65,30.18,10.0,NE,6.9,-,N/A,,Clear,50,2013-09-11 17:56:00
2:56 PM,84.0,70.0,63,30.17,10.0,ENE,9.2,-,N/A,,Clear,70,2013-09-11 18:56:00
3:56 PM,84.0,70.0,63,30.16,10.0,East,9.2,-,N/A,,Clear,90,2013-09-11 19:56:00
4:56 PM,82.9,70.0,65,30.13,10.0,East,5.8,-,N/A,,Partly Cloudy,90,2013-09-11 20:56:00
5:56 PM,82.0,71.1,69,30.12,10.0,East,6.9,-,N/A,,Clear,100,2013-09-11 21:56:00
6:56 PM,81.0,70.0,69,30.11,10.0,SE,5.8,-,N/A,,Clear,130,2013-09-11 22:56:00
7:56 PM,79.0,71.1,77,30.11,10.0,SSE,4.6,-,N/A,,Partly Cloudy,150,2013-09-11 23:56:00
8:56 PM,77.0,72.0,84,30.12,10.0,Calm,Calm,-,N/A,,Clear,0,2013-09-12 00:56:00
9:56 PM,77.0,71.1,82,30.13,9.0,Calm,Calm,-,N/A,,Clear,0,2013-09-12 01:56:00
10:56 PM,75.9,72.0,87,30.13,9.0,Calm,Calm,-,N/A,,Clear,0,2013-09-12 02:56:00
11:56 PM,78.1,72.0,81,30.12,10.0,WSW,3.5,-,N/A,,Clear,240,2013-09-12 03:56:00